Location: Hac?musa Deresi
(39.1694°N, 32.2508°E)
Time: 22:19:02
(UTC+00:00)

CZ-2C R/B - Pass Details

Date: 22 April 2026
Orbit: 781 x 868 km, 98.4° (Epoch: 9 May)

Event Time Altitude Azimuth Distance (km) Brightness Sun altitude
Exits shadow 21:47:41 28° 13° (NNE) 1,548 4.5 -38.4°
Drops below altitude 10° 21:50:18 10° 359° (N) 2,455 5.8 -38.4°
Sets 21:52:42 0° 354° (N) 3,380 6.8 -38.4°
